Schneifelwetter: Wetterstation Hallschlag, 537 m . NN
Wetterdaten: Montag, 06.10.2008
Datum Zeit Temp. A. Temp. 2 Feuchte A. Luftdruck Regen Wind Richtung Richtung Sonnenschein Helligkeit T Regen Taupunkt Windchill
06.10.2008 00:10 9,5 C 9,5 C 99 % 1004 hPa 0,9 l/m 27,6 km/h (4 Bft) SW45 235 0 min 0 lux 15,00 min 9,4 C 0,5 C
06.10.2008 00:25 9,8 C 9,8 C 99 % 1004 hPa 0,6 l/m 32,7 km/h (5 Bft) SW45 220 0 min 0 lux 15,00 min 9,7 C -0,2 C
06.10.2008 00:40 10,0 C 10,0 C 99 % 1004 hPa 0,9 l/m 30,3 km/h (5 Bft) S-SW45 210 0 min 0 lux 15,00 min 9,8 C 0,6 C
06.10.2008 00:55 10,2 C 10,3 C 99 % 1004 hPa 0,3 l/m 36,6 km/h (5 Bft) SW45 225 0 min 0 lux 15,00 min 10,0 C -0,3 C
06.10.2008 01:10 10,4 C 10,6 C 99 % 1004 hPa 1,2 l/m 31,6 km/h (5 Bft) W-SW67.5 240 0 min 0 lux 15,00 min 10,2 C 0,9 C
06.10.2008 01:25 10,8 C 10,8 C 99 % 1004 hPa 1,5 l/m 33,9 km/h (5 Bft) W-SW45 245 0 min 0 lux 15,00 min 10,6 C 1,0 C
06.10.2008 01:40 10,9 C 11,0 C 99 % 1004 hPa 0,9 l/m 27,3 km/h (4 Bft) SW45 235 0 min 0 lux 15,00 min 10,7 C 2,5 C
06.10.2008 01:55 11,1 C 11,3 C 99 % 1005 hPa 0,3 l/m 27,2 km/h (4 Bft) W-SW45 250 0 min 0 lux 15,00 min 10,9 C 2,8 C
06.10.2008 02:10 11,2 C 11,4 C 99 % 1005 hPa 0,6 l/m 35,7 km/h (5 Bft) W-SW22.5 255 0 min 0 lux 15,00 min 11,0 C 1,3 C
06.10.2008 02:25 11,3 C 11,5 C 99 % 1005 hPa 0,9 l/m 33,2 km/h (5 Bft) W-SW67.5 255 0 min 0 lux 15,00 min 11,1 C 1,9 C
06.10.2008 02:40 11,4 C 11,5 C 99 % 1005 hPa 0,3 l/m 32,6 km/h (5 Bft) W45 260 0 min 0 lux 15,00 min 11,2 C 2,1 C
06.10.2008 02:55 11,4 C 11,5 C 99 % 1006 hPa 0,3 l/m 33,0 km/h (5 Bft) W-SW67.5 250 0 min 0 lux 15,00 min 11,2 C 2,1 C
06.10.2008 03:10 11,4 C 11,5 C 99 % 1006 hPa 0,6 l/m 41,3 km/h (6 Bft) W-SW67.5 250 0 min 0 lux 15,00 min 11,2 C 0,8 C
06.10.2008 03:25 11,4 C 11,5 C 99 % 1006 hPa 0,9 l/m 32,2 km/h (5 Bft) W-SW22.5 255 0 min 0 lux 15,00 min 11,2 C 2,2 C
06.10.2008 03:40 11,4 C 11,5 C 99 % 1006 hPa 0,9 l/m 38,1 km/h (5 Bft) W45 260 0 min 0 lux 15,00 min 11,2 C 1,2 C
06.10.2008 03:55 11,4 C 11,5 C 99 % 1006 hPa 0,3 l/m 36,0 km/h (5 Bft) W45 260 0 min 0 lux 15,00 min 11,2 C 1,6 C
06.10.2008 04:10 11,3 C 11,5 C 99 % 1006 hPa 0,3 l/m 26,9 km/h (4 Bft) W22.5 260 0 min 0 lux 15,00 min 11,1 C 3,1 C
06.10.2008 04:25 11,3 C 11,5 C 99 % 1007 hPa 0,3 l/m 22,9 km/h (4 Bft) W-SW45 245 0 min 0 lux 15,00 min 11,1 C 4,1 C
06.10.2008 04:40 11,4 C 11,5 C 99 % 1007 hPa 0,6 l/m 29,4 km/h (5 Bft) W-SW22.5 250 0 min 0 lux 15,00 min 11,2 C 2,7 C
06.10.2008 04:55 11,4 C 11,5 C 99 % 1007 hPa 0,3 l/m 28,8 km/h (4 Bft) W22.5 260 0 min 0 lux 15,00 min 11,2 C 2,9 C
06.10.2008 05:10 11,4 C 11,5 C 99 % 1007 hPa 0,3 l/m 32,0 km/h (5 Bft) W-SW45 240 0 min 0 lux 15,00 min 11,2 C 2,2 C
06.10.2008 05:25 11,3 C 11,4 C 99 % 1007 hPa 0,6 l/m 30,7 km/h (5 Bft) W-SW67.5 255 0 min 0 lux 15,00 min 11,1 C 2,3 C
06.10.2008 05:40 11,2 C 11,3 C 99 % 1007 hPa 0,0 l/m 30,2 km/h (5 Bft) W45 260 0 min 0 lux 0,00 min 11,0 C 2,3 C
06.10.2008 05:55 11,2 C 11,2 C 99 % 1008 hPa 0,0 l/m 35,4 km/h (5 Bft) W45 260 0 min 0 lux 0,00 min 11,0 C 1,4 C
06.10.2008 06:10 11,0 C 11,0 C 99 % 1008 hPa 0,3 l/m 32,6 km/h (5 Bft) W22.5 260 0 min 0 lux 15,00 min 10,8 C 1,6 C
06.10.2008 06:25 10,9 C 11,0 C 99 % 1008 hPa 0,3 l/m 36,3 km/h (5 Bft) W45 270 0 min 0 lux 15,00 min 10,7 C 0,8 C
06.10.2008 06:40 10,9 C 10,9 C 99 % 1008 hPa 0,0 l/m 41,4 km/h (6 Bft) W22.5 260 0 min 0 lux 0,00 min 10,7 C 0,0 C
06.10.2008 06:56 10,8 C 10,8 C 99 % 1008 hPa 0,0 l/m 33,9 km/h (5 Bft) W22.5 260 0 min 0 lux 0,00 min 10,6 C 1,0 C
06.10.2008 07:11 10,8 C 10,8 C 99 % 1008 hPa 0,0 l/m 33,7 km/h (5 Bft) W45 265 0 min 0 lux 0,00 min 10,6 C 1,1 C
06.10.2008 07:26 10,8 C 10,7 C 99 % 1009 hPa 0,0 l/m 35,0 km/h (5 Bft) W67.5 260 0 min 58 lux 0,00 min 10,6 C 0,8 C
06.10.2008 07:41 10,7 C 10,7 C 99 % 1009 hPa 0,0 l/m 28,0 km/h (4 Bft) W-SW22.5 255 0 min 231 lux 0,00 min 10,5 C 2,1 C
06.10.2008 07:56 10,7 C 10,9 C 98 % 1009 hPa 0,0 l/m 33,8 km/h (5 Bft) W-SW22.5 255 0 min 650 lux 0,00 min 10,4 C 0,9 C
06.10.2008 08:11 10,7 C 10,9 C 98 % 1009 hPa 0,0 l/m 32,4 km/h (5 Bft) W-SW22.5 255 0 min 964 lux 0,00 min 10,4 C 1,2 C
06.10.2008 08:26 10,7 C 10,9 C 98 % 1009 hPa 0,0 l/m 35,9 km/h (5 Bft) W-SW67.5 250 0 min 2,19 klux 0,00 min 10,4 C 0,6 C
06.10.2008 08:41 10,7 C 10,9 C 98 % 1009 hPa 0,0 l/m 26,5 km/h (4 Bft) W-SW67.5 240 0 min 1,43 klux 0,00 min 10,4 C 2,4 C
06.10.2008 08:56 10,7 C 10,9 C 98 % 1010 hPa 0,0 l/m 41,8 km/h (6 Bft) W-SW22.5 250 0 min 2,31 klux 0,00 min 10,4 C -0,3 C
06.10.2008 09:11 10,8 C 11,0 C 98 % 1010 hPa 0,0 l/m 33,9 km/h (5 Bft) W-SW45 255 0 min 3,17 klux 0,00 min 10,5 C 1,0 C
06.10.2008 09:26 10,6 C 10,9 C 98 % 1010 hPa 0,0 l/m 38,6 km/h (5 Bft) W-SW45 250 0 min 2,50 klux 0,00 min 10,3 C -0,0 C
06.10.2008 09:41 10,6 C 10,7 C 98 % 1011 hPa 0,0 l/m 31,9 km/h (5 Bft) W-SW22.5 255 0 min 2,97 klux 0,00 min 10,3 C 1,1 C
06.10.2008 09:56 10,6 C 10,7 C 98 % 1011 hPa 0,0 l/m 34,0 km/h (5 Bft) W-SW22.5 255 0 min 7,70 klux 0,00 min 10,3 C 0,7 C
06.10.2008 10:11 10,7 C 10,7 C 98 % 1011 hPa 0,0 l/m 36,2 km/h (5 Bft) W-SW45 255 0 min 6,79 klux 0,00 min 10,4 C 0,5 C
06.10.2008 10:26 10,7 C 10,7 C 98 % 1011 hPa 0,0 l/m 28,6 km/h (4 Bft) W22.5 260 0 min 6,19 klux 0,00 min 10,4 C 1,9 C
06.10.2008 10:41 10,7 C 10,7 C 98 % 1011 hPa 0,0 l/m 27,6 km/h (4 Bft) W45 260 0 min 5,76 klux 0,00 min 10,4 C 2,2 C
06.10.2008 10:56 10,8 C 10,7 C 98 % 1012 hPa 0,0 l/m 24,5 km/h (4 Bft) W45 270 0 min 8,88 klux 0,00 min 10,5 C 3,0 C
06.10.2008 11:10 10,9 C 10,9 C 98 % 1012 hPa 0,0 l/m 27,3 km/h (4 Bft) W22.5 265 0 min 10,2 klux 0,00 min 10,6 C 2,5 C
06.10.2008 11:25 11,2 C 11,1 C 98 % 1012 hPa 0,0 l/m 23,2 km/h (4 Bft) W-SW22.5 255 0 min 14,4 klux 0,00 min 10,9 C 3,9 C
06.10.2008 11:40 11,4 C 11,2 C 98 % 1012 hPa 0,0 l/m 20,8 km/h (4 Bft) W-SW22.5 255 0 min 11,7 klux 0,00 min 11,1 C 4,9 C
06.10.2008 11:55 11,8 C 11,7 C 98 % 1012 hPa 0,0 l/m 25,9 km/h (4 Bft) W67.5 265 0 min 22,5 klux 0,00 min 11,5 C 4,1 C
06.10.2008 12:10 12,1 C 11,9 C 97 % 1012 hPa 0,0 l/m 21,2 km/h (4 Bft) W-SW45 255 0 min 19,3 klux 0,00 min 11,6 C 5,7 C
06.10.2008 12:25 12,2 C 11,9 C 95 % 1012 hPa 0,0 l/m 29,8 km/h (5 Bft) W45 260 0 min 22,2 klux 0,00 min 11,4 C 3,8 C
06.10.2008 12:40 12,2 C 11,9 C 95 % 1013 hPa 0,0 l/m 25,0 km/h (4 Bft) W-SW67.5 250 0 min 18,0 klux 0,00 min 11,4 C 4,8 C
06.10.2008 12:55 12,4 C 12,1 C 95 % 1013 hPa 0,0 l/m 28,3 km/h (4 Bft) W45 260 0 min 19,4 klux 0,00 min 11,6 C 4,4 C
06.10.2008 13:10 12,3 C 12,2 C 94 % 1013 hPa 0,0 l/m 27,8 km/h (4 Bft) W22.5 265 0 min 17,2 klux 0,00 min 11,4 C 4,3 C
06.10.2008 13:25 12,4 C 12,4 C 94 % 1013 hPa 0,0 l/m 23,0 km/h (4 Bft) W45 260 0 min 19,4 klux 0,00 min 11,5 C 5,6 C
06.10.2008 13:40 12,5 C 12,5 C 94 % 1013 hPa 0,0 l/m 29,8 km/h (5 Bft) W-SW67.5 255 0 min 19,0 klux 0,00 min 11,6 C 4,2 C
06.10.2008 13:55 12,8 C 13,0 C 93 % 1013 hPa 0,0 l/m 30,7 km/h (5 Bft) W45 265 0 min 36,6 klux 0,00 min 11,7 C 4,5 C
06.10.2008 14:10 12,8 C 12,9 C 91 % 1013 hPa 0,0 l/m 29,6 km/h (5 Bft) W22.5 260 0 min 27,5 klux 0,00 min 11,4 C 4,7 C
06.10.2008 14:25 12,6 C 12,7 C 92 % 1013 hPa 0,0 l/m 27,5 km/h (4 Bft) W22.5 265 0 min 16,1 klux 0,00 min 11,3 C 4,8 C
06.10.2008 14:40 12,5 C 12,6 C 92 % 1013 hPa 0,0 l/m 25,1 km/h (4 Bft) W45 260 0 min 14,9 klux 0,00 min 11,2 C 5,2 C
06.10.2008 14:55 12,4 C 12,6 C 92 % 1013 hPa 0,0 l/m 22,5 km/h (4 Bft) W-SW45 255 0 min 13,2 klux 0,00 min 11,1 C 5,7 C
06.10.2008 15:10 12,5 C 12,6 C 92 % 1014 hPa 0,0 l/m 17,7 km/h (3 Bft) W22.5 260 0 min 14,2 klux 0,00 min 11,2 C 7,2 C
06.10.2008 15:25 12,4 C 12,6 C 92 % 1014 hPa 0,0 l/m 17,6 km/h (3 Bft) W-SW22.5 255 0 min 11,7 klux 0,00 min 11,1 C 7,1 C
06.10.2008 15:40 12,7 C 13,0 C 92 % 1014 hPa 0,0 l/m 14,2 km/h (3 Bft) W22.5 265 0 min 23,2 klux 0,00 min 11,4 C 8,7 C
06.10.2008 15:55 12,9 C 13,0 C 92 % 1014 hPa 0,0 l/m 16,1 km/h (3 Bft) W-SW22.5 250 0 min 13,2 klux 0,00 min 11,6 C 8,3 C
06.10.2008 16:10 13,1 C 13,3 C 91 % 1014 hPa 0,0 l/m 12,9 km/h (3 Bft) W22.5 260 0 min 18,6 klux 0,00 min 11,7 C 9,7 C
06.10.2008 16:25 13,3 C 13,5 C 90 % 1014 hPa 0,0 l/m 15,4 km/h (3 Bft) W22.5 270 0 min 17,9 klux 0,00 min 11,7 C 9,0 C
06.10.2008 16:40 13,2 C 13,4 C 90 % 1014 hPa 0,0 l/m 15,2 km/h (3 Bft) W22.5 265 0 min 11,8 klux 0,00 min 11,6 C 8,9 C
06.10.2008 16:55 13,3 C 13,5 C 91 % 1014 hPa 0,0 l/m 13,8 km/h (3 Bft) W-SW22.5 250 0 min 15,8 klux 0,00 min 11,9 C 9,6 C
06.10.2008 17:10 13,1 C 13,3 C 90 % 1014 hPa 0,0 l/m 11,6 km/h (2 Bft) W22.5 265 0 min 10,4 klux 0,00 min 11,5 C 10,3 C
06.10.2008 17:25 13,0 C 13,1 C 90 % 1014 hPa 0,0 l/m 9,7 km/h (2 Bft) W 260 0 min 9,0 klux 0,00 min 11,4 C 11,1 C
06.10.2008 17:40 12,9 C 12,9 C 91 % 1014 hPa 0,0 l/m 14,4 km/h (3 Bft) W-SW22.5 250 0 min 6,95 klux 0,00 min 11,5 C 8,9 C
06.10.2008 17:55 12,7 C 12,7 C 91 % 1014 hPa 0,0 l/m 11,0 km/h (2 Bft) W22.5 260 0 min 6,30 klux 0,00 min 11,3 C 10,1 C
06.10.2008 18:10 12,4 C 12,5 C 91 % 1014 hPa 0,0 l/m 8,8 km/h (2 Bft) W-SW 250 0 min 4,06 klux 0,00 min 11,0 C 10,9 C
06.10.2008 18:25 12,2 C 12,2 C 92 % 1014 hPa 0,0 l/m 10,0 km/h (2 Bft) SW22.5 225 0 min 2,98 klux 0,00 min 10,9 C 10,0 C
06.10.2008 18:40 12,0 C 11,9 C 93 % 1014 hPa 0,0 l/m 6,8 km/h (2 Bft) SW22.5 225 0 min 2,20 klux 0,00 min 10,9 C 11,7 C
06.10.2008 18:55 11,7 C 11,6 C 93 % 1015 hPa 0,0 l/m 5,7 km/h (1 Bft) SW22.5 230 0 min 728 lux 0,00 min 10,6 C 11,7 C
06.10.2008 19:11 11,5 C 11,4 C 94 % 1015 hPa 0,0 l/m 7,2 km/h (2 Bft) S-SW 210 0 min 185 lux 0,00 min 10,6 C 11,0 C
06.10.2008 19:26 11,2 C 11,3 C 94 % 1015 hPa 0,0 l/m 6,1 km/h (2 Bft) S-SW 205 0 min 41 lux 0,00 min 10,3 C 11,2 C
06.10.2008 19:41 11,2 C 11,1 C 95 % 1015 hPa 0,0 l/m 7,8 km/h (2 Bft) S-SW22.5 205 0 min 6 lux 0,00 min 10,4 C 10,2 C
06.10.2008 19:56 11,2 C 11,2 C 95 % 1015 hPa 0,0 l/m 16,9 km/h (3 Bft) S-SW22.5 205 0 min 0 lux 0,00 min 10,4 C 5,9 C
06.10.2008 20:11 11,2 C 11,1 C 96 % 1015 hPa 0,0 l/m 13,1 km/h (3 Bft) S-SW45 205 0 min 0 lux 0,00 min 10,6 C 7,4 C
06.10.2008 20:26 11,2 C 11,1 C 96 % 1015 hPa 0,0 l/m 12,8 km/h (3 Bft) SW22.5 215 0 min 0 lux 0,00 min 10,6 C 7,5 C
06.10.2008 20:41 11,1 C 11,1 C 96 % 1015 hPa 0,0 l/m 14,0 km/h (3 Bft) SW45 215 0 min 0 lux 0,00 min 10,5 C 6,9 C
06.10.2008 20:56 11,0 C 11,0 C 96 % 1015 hPa 0,3 l/m 19,8 km/h (3 Bft) SW45 230 0 min 0 lux 15,00 min 10,4 C 4,6 C
06.10.2008 21:11 10,9 C 10,9 C 97 % 1015 hPa 0,0 l/m 17,0 km/h (3 Bft) SW22.5 230 0 min 0 lux 0,00 min 10,4 C 5,5 C
06.10.2008 21:26 10,9 C 10,8 C 97 % 1016 hPa 0,0 l/m 14,3 km/h (3 Bft) SW45 230 0 min 0 lux 0,00 min 10,4 C 6,5 C
06.10.2008 21:40 10,8 C 10,6 C 97 % 1016 hPa 0,0 l/m 9,5 km/h (2 Bft) S-SW22.5 210 0 min 0 lux 0,00 min 10,3 C 8,8 C
06.10.2008 21:55 10,8 C 10,7 C 97 % 1016 hPa 0,0 l/m 12,0 km/h (2 Bft) SW45 225 0 min 0 lux 0,00 min 10,3 C 7,4 C
06.10.2008 22:10 10,8 C 10,6 C 98 % 1016 hPa 0,0 l/m 11,9 km/h (2 Bft) W-SW22.5 240 0 min 0 lux 0,00 min 10,5 C 7,5 C
06.10.2008 22:25 10,8 C 10,7 C 98 % 1016 hPa 0,0 l/m 11,0 km/h (2 Bft) W-SW22.5 250 0 min 0 lux 0,00 min 10,5 C 7,9 C
06.10.2008 22:40 10,8 C 10,7 C 98 % 1016 hPa 0,3 l/m 8,3 km/h (2 Bft) W-SW22.5 245 0 min 0 lux 15,00 min 10,5 C 9,5 C
06.10.2008 22:55 10,8 C 10,7 C 98 % 1016 hPa 0,0 l/m 9,7 km/h (2 Bft) SW22.5 230 0 min 0 lux 0,00 min 10,5 C 8,6 C
06.10.2008 23:10 10,8 C 10,6 C 98 % 1016 hPa 0,0 l/m 9,0 km/h (2 Bft) SW22.5 225 0 min 0 lux 0,00 min 10,5 C 9,1 C
06.10.2008 23:25 10,7 C 10,6 C 98 % 1016 hPa 0,0 l/m 6,9 km/h (2 Bft) SW22.5 225 0 min 0 lux 0,00 min 10,4 C 10,4 C
06.10.2008 23:40 10,7 C 10,6 C 98 % 1016 hPa 0,0 l/m 6,8 km/h (2 Bft) S-SW 195 0 min 0 lux 0,00 min 10,4 C 10,4 C
06.10.2008 23:55 10,7 C 10,6 C 98 % 1016 hPa 0,0 l/m 7,9 km/h (2 Bft) S-SW 195 0 min 0 lux 0,00 min 10,4 C 9,7 C
_ Min-Zeit 00:10 00:10 16:25 00:10 - 18:55 - - - - - 00:10 08:56
Minimum _ 9,5 C 9,5 C 90 % 1004 hPa - 5,7 km/h (1 Bft) - - - - - 9,4 C -0,3 C
_ Max-Zeit 16:25 16:25 00:10 21:26 01:25 08:56 - - 00:10 13:55 00:10 16:55 18:40
Maximum _ 13,3 C 13,5 C 99 % 1016 hPa 1,5 l/m 41,8 km/h
W-SW (6 Bft)
- - 0 min 36,6 klux 15,00 min 11,9 C 11,7 C
Durchschnitt _ 11,4 C 11,4 C 96 % 1011 hPa #15,0 l/m 23,7 km/h (4 Bft) W-SW - #0 min. 5,44 klux #6:30 h 10,9 C 4,8 C